CW5619 Weather Reports


Display with metric or nautical units.
time (UTC)temp
F
wind
direction
speed
MPH
gust
MPH
rain 1hr
in
rain 24hr
in
rain mn
in
humidity
%
barometer
mb
20260906163403 86 198 0.0 2.0 0.00 0.00 0.00 43 1013.9
20260906162903 86 102 0.0 2.0 0.00 0.00 0.00 44 1014.0
20260906162403 85 73 0.0 3.0 0.00 0.00 0.00 44 1014.0
20260906161903 85 202 1.0 3.0 0.00 0.00 0.00 44 1014.0
20260906160903 85 147 1.0 3.0 0.00 0.00 0.00 45 1014.0
20260906160403 85 198 1.0 3.0 0.00 0.00 0.00 45 1014.1
20260906155903 84 131 0.0 1.0 0.00 0.00 0.00 46 1014.1
20260906155403 84 75 1.0 2.0 0.00 0.00 0.00 47 1014.1
20260906154903 84 74 0.0 2.0 0.00 0.00 0.00 47 1014.0
20260906154403 83 58 1.0 2.0 0.00 0.00 0.00 49 1014.0
20260906152903 83 129 1.0 2.0 0.00 0.00 0.00 49 1014.2
20260906152403 82 94 0.0 2.0 0.00 0.00 0.00 50 1014.2
20260906151903 82 107 0.0 2.0 0.00 0.00 0.00 50 1014.2
20260906151403 82 98 0.0 2.0 0.00 0.00 0.00 52 1014.1
20260906150904 82 93 0.0 2.0 0.00 0.00 0.00 51 1014.1
20260906150403 82 87 0.0 2.0 0.00 0.00 0.00 52 1014.1
20260906145904 81 100 0.0 2.0 0.00 0.00 0.00 54 1014.1
20260906144903 80 104 0.0 2.0 0.00 0.00 0.00 57 1014.2
20260906144403 80 104 0.0 2.0 0.00 0.00 0.00 58 1014.2
20260906143903 80 81 0.0 1.0 0.00 0.00 0.00 59 1014.1
20260906143404 79 80 0.0 1.0 0.00 0.00 0.00 61 1014.1
20260906142903 79 80 0.0 1.0 0.00 0.00 0.00 61 1013.9
20260906141903 79 80 0.0 0.0 0.00 0.00 0.00 60 1013.8
20260906141403 78 80 0.0 1.0 0.00 0.00 0.00 63 1013.9
20260906140903 78 80 0.0 1.0 0.00 0.00 0.00 62 1013.8
20260906140404 78 80 0.0 1.0 0.00 0.00 0.00 60 1013.8
20260906135403 78 80 0.0 1.0 0.00 0.00 0.00 60 1013.6
20260906134903 77 80 0.0 1.0 0.00 0.00 0.00 59 1013.7
20260906134403 77 80 0.0 1.0 0.00 0.00 0.00 59 1013.7
20260906133903 77 80 0.0 0.0 0.00 0.00 0.00 59 1013.7
20260906132904 77 80 0.0 1.0 0.00 0.00 0.00 59 1013.7
20260906132403 77 80 0.0 1.0 0.00 0.00 0.00 58 1013.8
20260906131403 77 80 0.0 1.0 0.00 0.00 0.00 57 1013.7
20260906130904 77 80 0.0 1.0 0.00 0.00 0.00 57 1013.6
20260906130403 77 80 0.0 2.0 0.00 0.00 0.00 57 1013.6
20260906125403 77 86 0.0 2.0 0.00 0.00 0.00 58 1013.6
20260906124903 77 92 0.0 2.0 0.00 0.00 0.00 58 1013.6
20260906123903 77 84 1.0 2.0 0.00 0.00 0.00 58 1013.4
20260906122903 78 31 0.0 1.0 0.00 0.00 0.00 56 1013.2
20260906122403 78 31 0.0 1.0 0.00 0.00 0.00 54 1013.2
20260906121903 79 31 0.0 0.0 0.00 0.00 0.00 53 1013.1
20260906121404 79 31 0.0 0.0 0.00 0.00 0.00 52 1013.1
20260906120403 79 31 0.0 1.0 0.00 0.00 0.00 53 1013.2
20260906115903 79 31 0.0 0.0 0.00 0.00 0.00 54 1013.0
20260906115404 78 31 0.0 0.0 0.00 0.00 0.00 54 1012.9
20260906114903 78 31 0.0 1.0 0.00 0.00 0.00 54 1013.0
20260906114404 78 31 0.0 1.0 0.00 0.00 0.00 54 1013.0
20260906113403 78 31 0.0 1.0 0.00 0.00 0.00 56 1013.1
20260906112403 78 31 0.0 2.0 0.00 0.00 0.00 56 1013.0
20260906111903 78 31 0.0 2.0 0.00 0.00 0.00 55 1013.0
20260906111403 79 5 0.0 1.0 0.00 0.00 0.00 53 1012.8
20260906110404 79 0 0.0 2.0 0.00 0.00 0.00 51 1012.7
20260906105903 79 0 0.0 2.0 0.00 0.00 0.00 52 1012.8
20260906105403 79 26 0.0 2.0 0.00 0.00 0.00 51 1012.7
20260906104903 79 341 0.0 2.0 0.00 0.00 0.00 52 1012.8
20260906104403 78 1 0.0 2.0 0.00 0.00 0.00 53 1012.8
20260906103903 78 39 0.0 2.0 0.00 0.00 0.00 54 1012.8
20260906103403 78 53 0.0 2.0 0.00 0.00 0.00 55 1012.7
20260906102403 78 46 0.0 1.0 0.00 0.00 0.00 54 1012.8
20260906101904 78 46 0.0 2.0 0.00 0.00 0.00 54 1012.7
20260906100903 78 50 0.0 1.0 0.00 0.00 0.00 55 1012.7
20260906100403 78 50 1.0 1.0 0.00 0.00 0.00 55 1012.7
20260906095403 78 50 0.0 1.0 0.00 0.00 0.00 54 1012.6
20260906094903 78 50 0.0 1.0 0.00 0.00 0.00 54 1012.6
20260906094403 78 50 0.0 1.0 0.00 0.00 0.00 54 1012.6
20260906093903 78 50 0.0 1.0 0.00 0.00 0.00 54 1012.7
20260906093403 78 50 0.0 0.0 0.00 0.00 0.00 53 1012.7
20260906092903 79 50 0.0 1.0 0.00 0.00 0.00 53 1012.7
20260906092404 79 50 0.0 1.0 0.00 0.00 0.00 52 1012.7
20260906091903 79 50 0.0 0.0 0.00 0.00 0.00 51 1012.7
20260906091404 79 50 0.0 0.0 0.00 0.00 0.00 50 1012.6
20260906090403 80 50 0.0 1.0 0.00 0.00 0.00 48 1012.6
20260906085903 80 50 0.0 2.0 0.00 0.00 0.00 48 1012.7
20260906084903 80 43 0.0 2.0 0.00 0.00 0.00 47 1012.7
20260906084403 80 43 0.0 2.0 0.00 0.00 0.00 47 1012.7
20260906083903 80 43 0.0 1.0 0.00 0.00 0.00 47 1012.7
20260906083403 81 43 0.0 1.0 0.00 0.00 0.00 45 1012.7
20260906082903 81 43 0.0 1.0 0.00 0.00 0.00 45 1012.7
20260906082404 81 43 0.0 2.0 0.00 0.00 0.00 45 1012.6
20260906081903 82 43 0.0 2.0 0.00 0.00 0.00 44 1012.7
20260906081404 82 54 0.0 1.0 0.00 0.00 0.00 44 1012.8
20260906080903 82 57 0.0 1.0 0.00 0.00 0.00 43 1012.8
20260906080403 82 57 0.0 0.0 0.00 0.00 0.00 43 1012.9
20260906075903 82 57 0.0 0.0 0.00 0.00 0.00 43 1012.9
20260906075404 82 57 0.0 0.0 0.00 0.00 0.00 43 1012.9
20260906074903 83 57 0.0 0.0 0.00 0.00 0.00 42 1013.0
20260906074404 83 57 0.0 0.0 0.00 0.00 0.00 43 1013.0
20260906073903 83 57 0.0 0.0 0.00 0.00 0.00 42 1013.0
20260906073403 83 57 0.0 1.0 0.00 0.00 0.00 42 1013.0
20260906072403 83 57 0.0 2.0 0.00 0.00 0.00 41 1013.1
20260906071903 83 38 0.0 2.0 0.00 0.00 0.00 41 1013.1
20260906071404 84 25 0.0 2.0 0.00 0.00 0.00 41 1013.2
20260906070903 84 25 0.0 3.0 0.00 0.00 0.00 41 1013.1
20260906065403 84 18 0.0 2.0 0.00 0.00 0.00 40 1013.2
20260906064904 85 36 0.0 3.0 0.00 0.00 0.00 40 1013.2
20260906064404 85 33 0.0 3.0 0.00 0.00 0.00 40 1013.2
20260906063903 85 52 1.0 3.0 0.00 0.00 0.00 41 1013.1
20260906063403 84 64 2.0 3.0 0.00 0.00 0.00 41 1013.1
20260906062403 84 26 1.0 3.0 0.00 0.00 0.00 44 1013.1
20260906061904 83 32 0.0 2.0 0.00 0.00 0.00 46 1013.1
20260906061404 83 247 0.0 0.0 0.00 0.00 0.00 46 1013.3
20260906060903 84 247 0.0 0.0 0.00 0.00 0.00 46 1013.2
20260906060404 83 247 0.0 0.0 0.00 0.00 0.00 47 1013.3
20260906055903 84 247 0.0 1.0 0.00 0.00 0.00 47 1013.3
20260906055403 84 247 0.0 1.0 0.00 0.00 0.00 46 1013.3
20260906054903 84 247 0.0 1.0 0.00 0.00 0.00 46 1013.4
20260906054403 85 247 0.0 0.0 0.00 0.00 0.00 45 1013.4
20260906053903 85 247 0.0 0.0 0.00 0.00 0.00 45 1013.4
20260906053403 85 247 0.0 1.0 0.00 0.00 0.00 44 1013.4
20260906052903 85 247 0.0 3.0 0.00 0.00 0.00 43 1013.4
20260906052403 85 248 1.0 3.0 0.00 0.00 0.00 44 1013.5
20260906051903 85 291 1.0 2.0 0.00 0.00 0.00 44 1013.5
20260906051403 85 33 0.0 1.0 0.00 0.00 0.00 45 1013.5
20260906050903 85 33 0.0 2.0 0.00 0.00 0.00 45 1013.5
20260906050403 85 33 0.0 3.0 0.00 0.00 0.00 45 1013.5
20260906045903 85 35 1.0 3.0 0.00 0.00 0.00 45 1013.5
20260906045403 86 72 1.0 2.0 0.00 0.00 0.00 44 1013.5
20260906044903 86 38 0.0 2.0 0.00 0.00 0.00 44 1013.4
20260906044403 86 38 0.0 2.0 0.00 0.00 0.00 44 1013.4
20260906043403 87 32 1.0 5.0 0.00 0.00 0.00 43 1013.3
20260906042903 87 24 1.0 5.0 0.00 0.00 0.00 43 1013.3
20260906042403 87 36 0.0 5.0 0.00 0.00 0.00 42 1013.3
20260906041903 87 36 1.0 3.0 0.00 0.00 0.00 42 1013.4
20260906041404 87 38 1.0 3.0 0.00 0.00 0.00 42 1013.3
20260906040903 88 34 0.0 3.0 0.00 0.00 0.00 41 1013.3
20260906040403 88 11 0.0 2.0 0.00 0.00 0.00 40 1013.2
20260906035903 89 38 1.0 2.0 0.00 0.00 0.00 39 1013.3
20260906035403 89 44 1.0 2.0 0.00 0.00 0.00 38 1013.2
20260906034903 89 41 1.0 2.0 0.00 0.00 0.00 38 1013.2
20260906034403 89 34 1.0 3.0 0.00 0.00 0.00 37 1013.2
20260906033903 89 21 1.0 3.0 0.00 0.00 0.00 38 1013.1
20260906033403 89 341 0.0 3.0 0.00 0.00 0.00 38 1013.1
20260906032904 90 0 1.0 3.0 0.00 0.00 0.00 37 1012.9
20260906032403 90 37 0.0 3.0 0.00 0.00 0.00 37 1012.9
20260906031904 90 31 1.0 2.0 0.00 0.00 0.00 37 1012.8
20260906031403 90 19 0.0 3.0 0.00 0.00 0.00 37 1012.7
20260906030903 90 35 0.0 3.0 0.00 0.00 0.00 37 1012.7
20260906025903 90 20 1.0 3.0 0.00 0.00 0.00 37 1012.6
20260906025403 91 21 1.0 3.0 0.00 0.00 0.00 37 1012.5
20260906024903 91 353 1.0 3.0 0.00 0.00 0.00 36 1012.4
20260906023904 91 355 2.0 6.0 0.00 0.00 0.00 36 1012.5
20260906023403 91 319 2.0 6.0 0.00 0.00 0.00 35 1012.4
20260906022903 92 352 2.0 8.0 0.00 0.00 0.00 35 1012.3
20260906022403 92 31 1.0 8.0 0.00 0.00 0.00 35 1012.2
20260906021903 92 0 2.0 5.0 0.00 0.00 0.00 35 1012.2
20260906021404 92 346 2.0 5.0 0.00 0.00 0.00 35 1012.2
20260906020903 92 328 1.0 3.0 0.00 0.00 0.00 34 1012.1
20260906020403 92 356 1.0 5.0 0.00 0.00 0.00 34 1012.1
20260906015903 93 354 1.0 6.0 0.00 0.00 0.00 33 1012.1
20260906015403 93 341 1.0 6.0 0.00 0.00 0.00 33 1012.1
20260906014903 93 324 2.0 6.0 0.00 0.00 0.00 33 1012.0
20260906014404 93 1 1.0 5.0 0.00 0.00 0.00 32 1012.1
20260906013903 93 357 1.0 6.0 0.00 0.00 0.00 32 1012.0
20260906013403 94 338 2.0 6.0 0.00 0.00 0.00 32 1012.0
20260906012903 94 327 2.0 6.0 0.00 0.00 0.00 32 1012.1
20260906012403 94 284 3.0 6.0 0.00 0.00 0.00 31 1012.0
20260906011904 95 284 1.0 5.0 0.00 0.00 0.00 31 1012.1
20260906011404 95 289 2.0 5.0 0.00 0.00 0.00 31 1012.0
20260906010903 95 235 2.0 9.0 0.00 0.00 0.00 31 1012.0
20260906005904 95 343 2.0 8.0 0.00 0.00 0.00 31 1012.1
20260906004904 96 227 2.0 6.0 0.00 0.00 0.00 31 1012.2
20260906004403 96 249 2.0 7.0 0.00 0.00 0.00 31 1012.2
20260906003903 96 183 2.0 7.0 0.00 0.00 0.00 30 1012.1
20260906003403 96 204 2.0 5.0 0.00 0.00 0.00 31 1012.2
20260906002904 96 215 2.0 6.0 0.00 0.00 0.00 31 1012.2
20260906002404 96 298 3.0 6.0 0.00 0.00 0.00 30 1012.0
20260906001904 96 323 2.0 9.0 0.00 0.00 0.00 31 1012.2
20260906001403 96 214 2.0 10.0 0.00 0.00 0.00 31 1012.2
20260906000903 97 248 3.0 10.0 0.00 0.00 0.00 31 1012.0
20260906000404 97 235 3.0 6.0 0.00 0.00 0.00 30 1012.2
20260905235903 98 230 2.0 7.0 0.00 0.00 0.00 30 1012.1
20260905234903 98 220 2.0 8.0 0.00 0.00 0.00 30 1012.1
20260905234403 98 232 3.0 8.0 0.00 0.00 0.00 30 1012.0
20260905233904 98 272 4.0 8.0 0.00 0.00 0.00 30 1012.1
20260905233404 98 185 3.0 8.0 0.00 0.00 0.00 30 1012.1
20260905232904 98 0 3.0 7.0 0.00 0.00 0.00 30 1012.1
20260905231904 99 243 2.0 10.0 0.00 0.00 0.00 29 1012.1
20260905231403 99 213 5.0 10.0 0.00 0.00 0.00 29 1012.1
20260905230903 99 226 2.0 10.0 0.00 0.00 0.00 29 1012.2
20260905225903 99 247 3.0 9.0 0.00 0.00 0.00 29 1012.2
20260905224403 99 174 3.0 8.0 0.00 0.00 0.00 29 1012.3
20260905223904 99 228 3.0 8.0 0.00 0.00 0.00 29 1012.4
20260905223405 100 136 2.0 7.0 0.00 0.00 0.00 29 1012.4
20260905222903 100 201 3.0 7.0 0.00 0.00 0.00 29 1012.4
20260905222403 99 322 2.0 8.0 0.00 0.00 0.00 29 1012.5
20260905221903 99 227 2.0 8.0 0.00 0.00 0.00 29 1012.6
20260905221404 99 225 3.0 10.0 0.00 0.00 0.00 28 1012.7
20260905220903 100 235 5.0 10.0 0.00 0.00 0.00 28 1012.7
20260905220403 99 219 2.0 7.0 0.00 0.00 0.00 28 1012.7
20260905215903 100 212 2.0 7.0 0.00 0.00 0.00 28 1012.9
20260905215404 99 53 2.0 7.0 0.00 0.00 0.00 27 1012.8
20260905214903 99 208 5.0 7.0 0.00 0.00 0.00 28 1013.0
20260905213903 99 221 3.0 8.0 0.00 0.00 0.00 28 1013.2
20260905213404 99 212 3.0 7.0 0.00 0.00 0.00 27 1013.1
20260905212903 100 303 2.0 8.0 0.00 0.00 0.00 28 1013.2
20260905212403 99 321 3.0 9.0 0.00 0.00 0.00 29 1013.2
20260905211903 99 225 3.0 9.0 0.00 0.00 0.00 29 1013.2
20260905211403 99 266 2.0 7.0 0.00 0.00 0.00 29 1013.2
20260905210903 100 248 3.0 7.0 0.00 0.00 0.00 29 1013.4
20260905210403 99 226 2.0 9.0 0.00 0.00 0.00 29 1013.5
20260905205903 100 219 2.0 9.0 0.00 0.00 0.00 28 1013.6
20260905205404 100 274 3.0 9.0 0.00 0.00 0.00 29 1013.6
20260905204904 99 246 2.0 7.0 0.00 0.00 0.00 30 1013.6
20260905203903 99 242 2.0 8.0 0.00 0.00 0.00 30 1013.9
20260905203404 97 233 2.0 8.0 0.00 0.00 0.00 31 1013.9
20260905202903 98 229 4.0 8.0 0.00 0.00 0.00 31 1014.1
20260905202403 98 234 3.0 8.0 0.00 0.00 0.00 31 1014.1
20260905201904 98 247 5.0 8.0 0.00 0.00 0.00 30 1014.2
20260905201403 98 231 3.0 7.0 0.00 0.00 0.00 30 1014.2
20260905200904 98 224 3.0 7.0 0.00 0.00 0.00 31 1014.3
20260905200403 98 210 3.0 7.0 0.00 0.00 0.00 31 1014.4
20260905195903 98 214 2.0 7.0 0.00 0.00 0.00 32 1014.4
20260905195403 97 220 3.0 7.0 0.00 0.00 0.00 31 1014.5
20260905194903 98 192 3.0 7.0 0.00 0.00 0.00 32 1014.6
20260905194403 97 239 2.0 8.0 0.00 0.00 0.00 32 1014.6
20260905193903 97 233 5.0 8.0 0.00 0.00 0.00 31 1014.6
20260905192403 97 224 3.0 9.0 0.00 0.00 0.00 32 1014.9
20260905191904 97 311 3.0 9.0 0.00 0.00 0.00 32 1015.0
20260905191403 97 241 4.0 7.0 0.00 0.00 0.00 32 1015.0
20260905190904 96 239 2.0 6.0 0.00 0.00 0.00 33 1015.2
20260905190404 96 236 2.0 6.0 0.00 0.00 0.00 33 1015.3
20260905185903 96 142 2.0 8.0 0.00 0.00 0.00 33 1015.2
20260905185403 96 225 3.0 8.0 0.00 0.00 0.00 33 1015.3
20260905184904 96 199 2.0 7.0 0.00 0.00 0.00 33 1015.3
20260905184403 96 221 3.0 7.0 0.00 0.00 0.00 33 1015.3
20260905183903 95 228 2.0 8.0 0.00 0.00 0.00 33 1015.4
20260905183403 96 57 3.0 8.0 0.00 0.00 0.00 34 1015.5
20260905182904 95 235 2.0 6.0 0.00 0.00 0.00 34 1015.5
20260905182404 95 269 2.0 8.0 0.00 0.00 0.00 34 1015.7
20260905181903 95 230 2.0 8.0 0.00 0.00 0.00 34 1015.6
20260905181403 95 204 2.0 6.0 0.00 0.00 0.00 35 1015.7
20260905180903 95 137 2.0 8.0 0.00 0.00 0.00 35 1015.7
20260905180404 94 217 3.0 8.0 0.00 0.00 0.00 35 1015.7
20260905175904 93 232 3.0 8.0 0.00 0.00 0.00 36 1015.7
20260905175404 93 228 2.0 6.0 0.00 0.00 0.00 36 1015.8
20260905174903 93 235 2.0 5.0 0.00 0.00 0.00 37 1015.8
20260905174403 93 201 1.0 5.0 0.00 0.00 0.00 37 1015.9
20260905173903 93 195 2.0 5.0 0.00 0.00 0.00 37 1015.9
20260905173404 93 227 3.0 5.0 0.00 0.00 0.00 37 1015.9
20260905172904 92 61 2.0 3.0 0.00 0.00 0.00 39 1015.9
20260905172403 91 205 1.0 3.0 0.00 0.00 0.00 40 1015.9
20260905171904 91 73 2.0 3.0 0.00 0.00 0.00 39 1015.9
20260905171403 92 218 1.0 3.0 0.00 0.00 0.00 40 1016.1
20260905170904 91 189 2.0 3.0 0.00 0.00 0.00 40 1016.0
20260905170403 90 234 1.0 3.0 0.00 0.00 0.00 43 1016.0
20260905165903 90 238 2.0 3.0 0.00 0.00 0.00 43 1016.1
20260905164903 89 132 0.0 3.0 0.00 0.00 0.00 45 1016.1
20260905164403 89 172 2.0 3.0 0.00 0.00 0.00 46 1016.2
20260905163903 88 215 1.0 3.0 0.00 0.00 0.00 46 1016.0